Location: Góry Miechowskie
(50.3599°N, 20.1803°E)
Time: 12:36:48
(UTC+00:00)

SL-16 R/B - Pass Details

Date: 15 June 2024
Orbit: 984 x 1007 km, 99.7° (Epoch: 15 July)

Event Time Altitude Azimuth Distance (km) Brightness Sun altitude
Rises 01:29:38 0° 172° (S) 3,721 5.1 -7.3°
Reaches altitude 10° 01:32:09 10° 176° (S) 2,774 4.5 -7.1°
Maximum altitude 01:38:19 63° 257° (WSW) 1,112 2.6 -6.4°
Drops below altitude 10° 01:44:32 10° 338° (NNW) 2,779 5.3 -5.8°
Sets 01:47:03 0° 342° (NNW) 3,729 6.0 -5.5°
